Time,TemperatureF,DewpointF,PressureIn,WindDirection,WindDirectionDegrees,WindSpeedMPH,WindSpeedGustMPH,Humidity,HourlyPrecipIn,Conditions,Clouds,dailyrainin,SolarRadiationWatts/m^2,SoftwareType,DateUTC
2013-10-11 00:03:00,61.0,54.0,-100.00,SSE,165,10.0,17.0,79,0.00,,,0.00,0.000000,,2013-10-11 05:03:00,
2013-10-11 00:43:00,59.0,55.0,-100.00,SSE,166,7.0,13.0,88,0.00,,,0.00,0.000000,,2013-10-11 05:43:00,
2013-10-11 00:52:00,59.0,55.0,-100.00,SSE,166,7.0,13.0,88,0.00,,,0.00,0.000000,,2013-10-11 05:52:00,
2013-10-11 01:02:00,59.0,55.0,-100.00,SSE,166,7.0,13.0,88,0.00,,,0.00,0.000000,,2013-10-11 06:02:00,
2013-10-11 01:43:00,59.0,58.0,-100.00,South,169,10.0,16.0,96,0.00,,,0.00,0.000000,,2013-10-11 06:43:00,
2013-10-11 01:52:00,59.0,58.0,-100.00,South,169,10.0,16.0,96,0.00,,,0.00,0.000000,,2013-10-11 06:52:00,
2013-10-11 02:02:00,59.0,58.0,-100.00,South,169,10.0,16.0,96,0.00,,,0.00,0.000000,,2013-10-11 07:02:00,
2013-10-11 02:42:00,58.0,58.0,-100.00,SSE,161,7.0,15.0,100,0.00,,,0.00,0.000000,,2013-10-11 07:42:00,
2013-10-11 02:52:00,58.0,58.0,-100.00,SSE,161,7.0,15.0,100,0.00,,,0.00,0.000000,,2013-10-11 07:52:00,
2013-10-11 03:02:00,58.0,58.0,-100.00,SSE,161,7.0,15.0,100,0.00,,,0.00,0.000000,,2013-10-11 08:02:00,
2013-10-11 03:42:00,58.0,58.0,-100.00,SSE,156,7.0,12.0,100,0.00,,,0.00,0.000000,,2013-10-11 08:42:00,
2013-10-11 03:52:00,58.0,58.0,-100.00,SSE,156,7.0,12.0,100,0.00,,,0.00,0.000000,,2013-10-11 08:52:00,
2013-10-11 04:01:00,58.0,58.0,-100.00,SSE,156,7.0,12.0,100,0.00,,,0.00,0.000000,,2013-10-11 09:01:00,
2013-10-11 04:43:00,58.0,58.0,-100.00,SSE,157,7.0,12.0,100,0.00,,,0.00,0.000000,,2013-10-11 09:43:00,
2013-10-11 04:54:00,58.0,58.0,-100.00,SSE,157,7.0,12.0,100,0.00,,,0.00,0.000000,,2013-10-11 09:54:00,
2013-10-11 05:03:00,58.0,58.0,-100.00,SSE,157,7.0,12.0,100,0.00,,,0.00,0.000000,,2013-10-11 10:03:00,
2013-10-11 05:43:00,57.0,57.0,-100.00,SSE,148,7.0,11.0,100,0.00,,,0.00,0.000000,,2013-10-11 10:43:00,
2013-10-11 05:53:00,57.0,57.0,-100.00,SSE,148,7.0,11.0,100,0.00,,,0.00,0.000000,,2013-10-11 10:53:00,
2013-10-11 06:02:00,57.0,57.0,-100.00,SSE,148,7.0,11.0,100,0.00,,,0.00,0.000000,,2013-10-11 11:02:00,
2013-10-11 06:42:00,57.0,57.0,-100.00,SSE,147,7.0,11.0,100,0.00,,,-99.99,0.000000,,2013-10-11 11:42:00,
2013-10-11 06:52:00,57.0,57.0,-100.00,SSE,147,7.0,11.0,100,0.00,,,-99.99,0.000000,,2013-10-11 11:52:00,
2013-10-11 07:02:00,57.0,57.0,-100.00,SSE,147,7.0,11.0,100,0.00,,,-99.99,0.000000,,2013-10-11 12:02:00,
2013-10-11 07:42:00,58.0,58.0,-100.00,SSE,151,8.0,13.0,100,0.00,,,-99.99,0.000000,,2013-10-11 12:42:00,
2013-10-11 07:52:00,58.0,58.0,-100.00,SSE,151,8.0,13.0,100,0.00,,,-99.99,0.000000,,2013-10-11 12:52:00,
2013-10-11 08:02:00,58.0,58.0,-100.00,SSE,151,8.0,13.0,100,0.00,,,-99.99,0.000000,,2013-10-11 13:02:00,
2013-10-11 08:43:00,58.0,58.0,-100.00,SSE,153,9.0,13.0,100,0.00,,,-99.99,14.000000,,2013-10-11 13:43:00,
2013-10-11 08:53:00,58.0,58.0,-100.00,SSE,153,9.0,13.0,100,0.00,,,-99.99,14.000000,,2013-10-11 13:53:00,
2013-10-11 09:02:00,58.0,58.0,-100.00,SSE,153,9.0,13.0,100,0.00,,,-99.99,14.000000,,2013-10-11 14:02:00,
2013-10-11 09:42:00,58.0,58.0,-100.00,SE,143,7.0,12.0,100,0.00,,,0.00,50.000000,,2013-10-11 14:42:00,
2013-10-11 09:52:00,58.0,58.0,-100.00,SE,143,7.0,12.0,100,0.00,,,0.00,50.000000,,2013-10-11 14:52:00,
2013-10-11 10:02:00,58.0,58.0,-100.00,SE,143,7.0,12.0,100,0.00,,,0.00,50.000000,,2013-10-11 15:02:00,
2013-10-11 10:44:00,59.0,59.0,-100.00,SE,137,6.0,11.0,100,0.00,,,0.00,113.000000,,2013-10-11 15:44:00,
2013-10-11 10:54:00,59.0,59.0,-100.00,SE,137,6.0,11.0,100,0.00,,,0.00,113.000000,,2013-10-11 15:54:00,
2013-10-11 11:04:00,59.0,59.0,-100.00,SE,137,6.0,11.0,100,0.00,,,0.00,113.000000,,2013-10-11 16:04:00,
2013-10-11 11:43:00,63.0,63.0,-100.00,SSE,148,6.0,10.0,100,0.00,,,-99.99,342.000000,,2013-10-11 16:43:00,
2013-10-11 11:53:00,63.0,63.0,-100.00,SSE,148,6.0,10.0,100,0.00,,,-99.99,342.000000,,2013-10-11 16:53:00,
2013-10-11 12:03:00,63.0,63.0,-100.00,SSE,148,6.0,10.0,100,0.00,,,-99.99,342.000000,,2013-10-11 17:03:00,
2013-10-11 12:43:00,67.0,67.0,-100.00,SSE,148,8.0,14.0,100,0.00,,,0.00,626.000000,,2013-10-11 17:43:00,
2013-10-11 12:53:00,67.0,67.0,-100.00,SSE,148,8.0,14.0,100,0.00,,,0.00,626.000000,,2013-10-11 17:53:00,
2013-10-11 13:02:00,67.0,67.0,-100.00,SSE,148,8.0,14.0,100,0.00,,,0.00,626.000000,,2013-10-11 18:02:00,
2013-10-11 13:43:00,67.0,65.0,-100.00,SSE,164,11.0,16.0,92,0.00,,,0.00,483.000000,,2013-10-11 18:43:00,
2013-10-11 13:53:00,67.0,65.0,-100.00,SSE,164,11.0,16.0,92,0.00,,,0.00,483.000000,,2013-10-11 18:53:00,
2013-10-11 14:02:00,67.0,65.0,-100.00,SSE,164,11.0,16.0,92,0.00,,,0.00,483.000000,,2013-10-11 19:02:00,
2013-10-11 14:43:00,70.0,65.0,-100.00,SSE,152,9.0,16.0,83,0.00,,,0.00,613.000000,,2013-10-11 19:43:00,
2013-10-11 14:52:00,70.0,65.0,-100.00,SSE,152,9.0,16.0,83,0.00,,,0.00,613.000000,,2013-10-11 19:52:00,
2013-10-11 15:02:00,70.0,65.0,-100.00,SSE,152,9.0,16.0,83,0.00,,,0.00,613.000000,,2013-10-11 20:02:00,
2013-10-11 15:43:00,69.0,63.0,-100.00,SE,146,9.0,17.0,80,0.00,,,0.00,287.000000,,2013-10-11 20:43:00,
2013-10-11 15:53:00,69.0,63.0,-100.00,SE,146,9.0,17.0,80,0.00,,,0.00,287.000000,,2013-10-11 20:53:00,
2013-10-11 16:02:00,69.0,63.0,-100.00,SE,146,9.0,17.0,80,0.00,,,0.00,287.000000,,2013-10-11 21:02:00,
2013-10-11 16:43:00,70.0,64.0,-100.00,SSE,151,10.0,16.0,82,0.00,,,0.00,223.000000,,2013-10-11 21:43:00,
2013-10-11 16:55:00,70.0,64.0,-100.00,SSE,151,10.0,16.0,82,0.00,,,0.00,223.000000,,2013-10-11 21:55:00,
2013-10-11 17:04:00,70.0,64.0,-100.00,SSE,151,10.0,16.0,82,0.00,,,0.00,223.000000,,2013-10-11 22:04:00,
2013-10-11 17:43:00,70.0,63.0,-100.00,SSE,155,8.0,14.0,79,0.00,,,0.00,204.000000,,2013-10-11 22:43:00,
2013-10-11 17:54:00,70.0,63.0,-100.00,SSE,155,8.0,14.0,79,0.00,,,0.00,204.000000,,2013-10-11 22:54:00,
2013-10-11 18:03:00,70.0,63.0,-100.00,SSE,155,8.0,14.0,79,0.00,,,0.00,204.000000,,2013-10-11 23:03:00,
2013-10-11 18:42:00,69.0,63.0,-100.00,SSE,161,8.0,14.0,80,0.00,,,0.00,179.000000,,2013-10-11 23:42:00,
2013-10-11 18:53:00,69.0,63.0,-100.00,SSE,161,8.0,14.0,80,0.00,,,0.00,179.000000,,2013-10-11 23:53:00,
2013-10-11 19:02:00,69.0,63.0,-100.00,SSE,161,8.0,14.0,80,0.00,,,0.00,179.000000,,2013-10-12 00:02:00,
2013-10-11 19:42:00,68.0,63.0,-100.00,South,170,6.0,11.0,83,0.00,,,0.00,10.000000,,2013-10-12 00:42:00,
2013-10-11 19:53:00,68.0,63.0,-100.00,South,170,6.0,11.0,83,0.00,,,0.00,10.000000,,2013-10-12 00:53:00,
2013-10-11 20:02:00,68.0,63.0,-100.00,South,170,6.0,11.0,83,0.00,,,0.00,10.000000,,2013-10-12 01:02:00,
2013-10-11 20:42:00,67.0,63.0,-100.00,SSE,160,7.0,12.0,86,0.00,,,0.00,0.000000,,2013-10-12 01:42:00,
2013-10-11 20:52:00,67.0,63.0,-100.00,SSE,160,7.0,12.0,86,0.00,,,0.00,0.000000,,2013-10-12 01:52:00,
2013-10-11 21:02:00,67.0,63.0,-100.00,SSE,160,7.0,12.0,86,0.00,,,0.00,0.000000,,2013-10-12 02:02:00,
2013-10-11 21:42:00,66.0,63.0,-100.00,SSE,160,9.0,13.0,90,0.00,,,0.00,0.000000,,2013-10-12 02:42:00,
2013-10-11 21:52:00,66.0,63.0,-100.00,SSE,160,9.0,13.0,90,0.00,,,0.00,0.000000,,2013-10-12 02:52:00,
2013-10-11 22:02:00,66.0,63.0,-100.00,SSE,160,9.0,13.0,90,0.00,,,0.00,0.000000,,2013-10-12 03:02:00,
2013-10-11 22:44:00,66.0,64.0,-100.00,SSE,157,8.0,13.0,92,0.00,,,0.00,0.000000,,2013-10-12 03:44:00,
2013-10-11 22:54:00,66.0,64.0,-100.00,SSE,157,8.0,13.0,92,0.00,,,0.00,0.000000,,2013-10-12 03:54:00,
2013-10-11 23:04:00,66.0,64.0,-100.00,SSE,157,8.0,13.0,92,0.00,,,0.00,0.000000,,2013-10-12 04:04:00,
2013-10-11 23:44:00,66.0,63.0,-100.00,SSE,161,9.0,13.0,89,0.00,,,0.00,0.000000,,2013-10-12 04:44:00,
2013-10-11 23:54:00,66.0,63.0,-100.00,SSE,161,9.0,13.0,89,0.00,,,0.00,0.000000,,2013-10-12 04:54:00,